This is the latest recevied weather packets stored in our database for station/object K0SNA. If no packets are shown the sender has not sent any weather packets the latest 10 day(s).
| Time | Temp. | Humidity | Pressure | Rain* | Wind** | Luminosity | Snow |
|---|---|---|---|---|---|---|---|
| 1777470323 | 6.67° C | 56% | 1019.5 hPa | 0 mm | - | 261 W/m² | - |
| 1777470021 | 6.67° C | 57% | 1019.6 hPa | 0 mm | - | 249 W/m² | - |
| 1777469716 | 6.67° C | 57% | 1019.7 hPa | 0 mm | - | 236 W/m² | - |
| 1777469412 | 6.67° C | 57% | 1019.8 hPa | 0 mm | - | 224 W/m² | - |
| 1777469107 | 6.11° C | 58% | 1019.7 hPa | 0 mm | - | 211 W/m² | - |
| 1777468807 | 6.11° C | 58% | 1019.7 hPa | 0 mm | - | 153 W/m² | - |
| 1777468504 | 6.11° C | 59% | 1019.6 hPa | 0 mm | - | 105 W/m² | - |
| 1777468201 | 5.56° C | 58% | 1019.6 hPa | 0 mm | - | 62 W/m² | - |
| 1777467897 | 6.11° C | 59% | 1019.7 hPa | 0 mm | - | 159 W/m² | - |
| 1777467592 | 5.56° C | 60% | 1019.4 hPa | 0 mm | - | 147 W/m² | - |
| 1777467288 | 5.56° C | 60% | 1019.5 hPa | 0 mm | - | 136 W/m² | - |
| 1777466984 | 5.56° C | 60% | 1019.4 hPa | 0 mm | - | 124 W/m² | - |
| 1777466682 | 5° C | 61% | 1019.4 hPa | 0 mm | - | 112 W/m² | - |
| 1777466378 | 5° C | 61% | 1019.7 hPa | 0 mm | - | 104 W/m² | - |
| 1777466074 | 5° C | 62% | 1019.4 hPa | 0 mm | - | 92 W/m² | - |
| 1777465772 | 5° C | 62% | 1019.5 hPa | 0 mm | - | 84 W/m² | - |
| 1777465467 | 4.44° C | 63% | 1019.6 hPa | 0 mm | - | 74 W/m² | - |
| 1777465166 | 4.44° C | 64% | 1019.5 hPa | 0 mm | - | 59 W/m² | - |
| 1777464862 | 3.89° C | 64% | 1019.4 hPa | 0 mm | - | 33 W/m² | - |
| 1777464557 | 3.89° C | 65% | 1019.2 hPa | 0 mm | - | 33 W/m² | - |
| 1777464254 | 3.89° C | 65% | 1019.2 hPa | 0 mm | - | 29 W/m² | - |
| 1777463949 | 3.89° C | 65% | 1019.2 hPa | 0 mm | - | 33 W/m² | - |
| 1777463644 | 3.89° C | 66% | 1019.1 hPa | 0 mm | - | 29 W/m² | - |
| 1777463339 | 3.33° C | 67% | 1019 hPa | 0 mm | - | 22 W/m² | - |
| 1777463036 | 3.33° C | 67% | 1018.9 hPa | 0 mm | - | 18 W/m² | - |
* Rain latest hour (hover to see other rain measurements)
** Current wind speed in m/s (hover to see current wind gust speed)